                ,  0.937,  1.134,  1.331,  1.528,  1.725,  1.922,  2.119,  2.316,  2.513,  2.711,  2.908,  3.105,  3.302,  3.499,  3.696,  3.893,  4.090,  4.287,  4.484,  4.681,  4.878,  5.076,  5.273,  5.470,  5.667,  5.864,  6.061,  6.258,  6.455,  6.652,  6.849,  7.046,  7.243,  7.441,  7.638,  7.835,  8.032,  8.229,  8.426,  8.623,  8.820,  9.017,  9.214,  9.411,  9.608,  9.806
2000/06/10 00:00,  999.0,  999.0,  999.0,  999.0,  999.0,  999.0,  999.0,  999.0,  999.0,  999.0,  999.0,  999.0,  999.0,  999.0,  999.0,  999.0,  999.0,  999.0,  999.0,  999.0,  999.0,  999.0,  999.0,  999.0,  999.0,  999.0,  999.0,  999.0,  999.0,  999.0,  999.0,  999.0,  999.0,  999.0,  999.0,  999.0,  999.0,  999.0,  999.0,  999.0,  999.0,  999.0,  999.0,  999.0,  999.0,  999.0
2000/06/10 00:10,  999.0,  999.0,   -5.2,   -3.1,   -2.8,   -4.0,    1.0,  999.0,  999.0,    2.1,  999.0,  999.0,  999.0,  999.0,  999.0,  999.0,  999.0,  999.0,  999.0,  999.0,   12.7,  999.0,  999.0,  999.0,  999.0,  999.0,  999.0,   15.0,   15.4,   13.3,   13.3,   13.6,   13.8,   15.9,   19.2,   21.7,   23.7,   26.5,   26.5,   26.8,  999.0,   28.3,  999.0,  999.0,  999.0,  999.0
2000/06/10 00:20,   -4.4,   -3.6,   -5.8,   -2.5,  999.0,  999.0,  999.0,  999.0,  999.0,  999.0,  999.0,  999.0,  999.0,  999.0,  999.0,  999.0,  999.0,  999.0,  999.0,  999.0,  999.0,  999.0,  999.0,  999.0,  999.0,  999.0,  999.0,   15.9,   15.5,   13.0,   12.3,   14.2,   15.2,   16.6,   20.0,   23.0,   25.0,   26.5,   27.3,   27.7,   27.9,  999.0,  999.0,  999.0,  999.0,  999.0
2000/06/10 00:30,  999.0,   -4.4,   -5.1,  999.0,   -1.8,  999.0,    1.2,  999.0,  999.0,  999.0,  999.0,  999.0,  999.0,  999.0,  999.0,  999.0,  999.0,  999.0,  999.0,  999.0,  999.0,  999.0,  999.0,  999.0,  999.0,   15.8,   16.6,   16.0,   14.8,   12.3,   12.0,   15.1,   16.1,   19.1,   21.7,   24.2,   26.2,   28.2,   27.9,  999.0,   29.6,  999.0,  999.0,  999.0,  999.0,  999.0
2000/06/10 00:40,   -4.4,   -5.0,   -6.6,  999.0,   -4.0,  999.0,  999.0,  999.0,  999.0,  999.0,  999.0,  999.0,  999.0,  999.0,  999.0,  999.0,  999.0,  999.0,  999.0,  999.0,  999.0,  999.0,  999.0,  999.0,   14.9,  999.0,   20.2,   15.3,   13.4,   10.9,   11.8,   14.6,   17.1,   20.0,   23.0,   25.7,   26.9,   28.0,   28.3,   29.1,  999.0,  999.0,  999.0,  999.0,  999.0,  999.0
2000/06/10 00:50,  999.0,   -4.1,   -5.4,  999.0,  999.0,  999.0,  999.0,  999.0,  999.0,  999.0,  999.0,  999.0,  999.0,  999.0,  999.0,  999.0,  999.0,  999.0,  999.0,  999.0,  999.0,  999.0,  999.0,  999.0,   13.6,   15.0,   15.7,   14.2,   12.3,   10.5,   12.6,   14.9,   18.6,   21.6,   25.0,   26.9,   27.6,  999.0,   29.1,  999.0,  999.0,  999.0,  999.0,  999.0,  999.0,  999.0
2000/06/10 01:00,   -5.2,   -4.4,   -4.4,  999.0,  999.0,  999.0,  999.0,  999.0,  999.0,  999.0,  999.0,  999.0,    2.6,  999.0,  999.0,  999.0,  999.0,  999.0,  999.0,  999.0,  999.0,  999.0,  999.0,  999.0,   13.1,   14.0,   14.2,   12.9,   10.7,    9.5,   12.7,   14.8,   18.3,   22.2,   24.9,   26.8,   28.1,   29.2,  999.0,  999.0,  999.0,  999.0,  999.0,  999.0,  999.0,  999.0
2000/06/10 01:10,   -4.8,   -3.8,   -4.4,  999.0,   -2.2,   -1.6,  999.0,  999.0,  999.0,  999.0,  999.0,  999.0,  999.0,  999.0,  999.0,  999.0,  999.0,  999.0,  999.0,  999.0,   12.5,  999.0,  999.0,  999.0,  999.0,   13.4,   12.6,   11.7,   10.1,    8.9,   12.6,   14.6,   18.4,   23.0,   26.5,   27.2,   27.6,   28.2,   29.8,  999.0,  999.0,  999.0,  999.0,  999.0,  999.0,  999.0
2000/06/10 01:20,   -4.1,   -3.7,   -4.0,  999.0,  999.0,   -2.8,   -1.6,   -2.8,  999.0,  999.0,  999.0,  999.0,  999.0,  999.0,  999.0,    7.9,  999.0,  999.0,  999.0,   10.9,  999.0,  999.0,  999.0,  999.0,   11.6,   13.1,   12.7,   11.3,    9.9,   10.2,   14.1,   15.5,   20.1,   24.1,   27.0,   27.8,   28.2,   29.0,  999.0,  999.0,  999.0,  999.0,  999.0,  999.0,   29.9,  999.0
2000/06/10 01:30,   -5.0,   -3.3,   -4.3,  999.0,   -1.8,   -0.9,  999.0,   -2.5,   -0.4,  999.0,  999.0,  999.0,  999.0,  999.0,    3.5,  999.0,    7.3,    9.4,  999.0,   11.1,  999.0,  999.0,  999.0,  999.0,  999.0,   12.4,   12.4,   10.9,    9.6,   10.7,   14.3,   17.2,   20.2,   23.9,   26.8,   28.1,   28.1,   28.6,  999.0,  999.0,  999.0,  999.0,  999.0,  999.0,  999.0,  999.0
2000/06/10 01:40,  999.0,  999.0,   -5.0,   -2.2,  999.0,   -0.3,  999.0,   -2.4,  999.0,    1.5,  999.0,  999.0,  999.0,    1.3,    3.1,  999.0,    7.1,    8.4,  999.0,   11.6,  999.0,  999.0,  999.0,  999.0,  999.0,   11.5,   11.0,   10.1,    9.1,   10.1,   15.1,   18.5,   22.6,   25.9,   28.3,   28.2,   28.7,  999.0,   29.8,   29.8,  999.0,  999.0,   29.1,   29.8,  999.0,  999.0
2000/06/10 01:50,  999.0,  999.0,   -5.1,   -2.1,   -1.4,  999.0,  999.0,   -1.2,  999.0,  999.0,  999.0,  999.0,  999.0,  999.0,    4.5,  999.0,    7.8,  999.0,   10.3,   11.2,  999.0,  999.0,  999.0,  999.0,  999.0,   10.4,   10.4,    9.1,    8.6,   10.2,   15.9,   20.0,   23.6,   26.8,   28.3,   28.7,   29.4,  999.0,  999.0,   29.5,   29.6,   29.6,   29.4,  999.0,  999.0,  999.0
2000/06/10 02:00,   -4.6,  999.0,  999.0,  999.0,  999.0,  999.0,  999.0,  999.0,  999.0,    2.0,    3.1,  999.0,    1.2,  999.0,  999.0,  999.0,  999.0,    8.7,   10.0,   10.6,  999.0,  999.0,  999.0,  999.0,   10.0,   10.0,   10.2,    9.3,    8.5,   12.0,   17.9,   22.2,   24.2,   25.1,   26.7,   27.8,   29.5,   29.9,   28.4,   28.7,   28.8,   29.3,  999.0,  999.0,  999.0,  999.0
2000/06/10 02:10,  999.0,  999.0,  999.0,  999.0,  999.0,  999.0,  999.0,  999.0,  999.0,  999.0,  999.0,  999.0,  999.0,  999.0,  999.0,  999.0,    6.5,  999.0,    9.2,  999.0,  999.0,  999.0,  999.0,  999.0,  999.0,  999.0,    8.6,    8.3,    9.0,   12.1,   18.4,   21.0,   23.4,   25.6,   26.8,   28.8,  999.0,   28.9,   28.3,   28.9,   28.4,   29.3,   29.6,  999.0,  999.0,  999.0
2000/06/10 02:20,  999.0,  999.0,   -5.0,  999.0,  999.0,  999.0,   -1.7,   -0.0,  999.0,  999.0,  999.0,  999.0,  999.0,  999.0,    4.1,  999.0,    7.0,    8.6,    9.1,  999.0,  999.0,  999.0,  999.0,  999.0,    7.4,    8.5,    9.6,    8.9,    9.9,   14.7,   18.8,   19.9,   22.8,   26.0,   28.8,  999.0,  999.0,   29.6,   28.5,   27.9,   27.5,   28.4,   28.6,  999.0,  999.0,  999.0
2000/06/10 02:30,   -3.7,  999.0,   -4.2,  999.0,  999.0,  999.0,  999.0,  999.0,  999.0,  999.0,  999.0,  999.0,  999.0,  999.0,    3.9,  999.0,    7.7,    8.6,    8.7,  999.0,  999.0,  999.0,   10.4,    8.8,    8.7,    9.2,    9.7,    9.1,   10.1,   14.6,   17.8,   19.9,   23.2,   27.0,   29.1,   28.8,   28.9,   29.0,   27.9,   28.1,   28.8,   29.6,  999.0,  999.0,  999.0,  999.0
2000/06/10 02:40,  999.0,  999.0,   -6.2,  999.0,   -1.1,  999.0,  999.0,  999.0,  999.0,    2.3,  999.0,  999.0,  999.0,    1.9,    3.8,  999.0,  999.0,  999.0,  999.0,    8.6,    9.1,    9.0,    9.3,    7.2,   10.3,   10.2,    9.5,    7.7,   10.1,   15.1,   17.5,   20.8,   24.1,   27.6,   29.8,  999.0,  999.0,   29.0,  999.0,   29.7,   28.9,  999.0,  999.0,  999.0,  999.0,  999.0
2000/06/10 02:50,  999.0,   -7.3,  999.0,   -3.8,  999.0,  999.0,   -3.4,  999.0,  999.0,  999.0,  999.0,  999.0,  999.0,    1.9,    5.2,    6.3,    8.2,    9.3,    9.7,    9.2,    9.5,   12.1,   10.9,   10.1,    8.9,    6.4,    4.8,    8.2,   13.3,   16.2,   18.4,   22.1,   25.9,   27.9,  999.0,   28.8,   28.0,   28.8,  999.0,  999.0,  999.0,  999.0,  999.0,  999.0,  999.0,  999.0
2000/06/10 03:00,  999.0,  999.0,  999.0,  999.0,  999.0,  999.0,   -3.5,  999.0,  999.0,  999.0,  999.0,  999.0,  999.0,  999.0,    4.3,    5.7,    7.2,    8.1,   10.0,    8.0,    2.1,    6.7,    6.1,    5.9,    6.1,    5.6,    5.3,   10.8,   15.8,   16.9,   19.3,   23.3,   27.3,   28.0,   28.4,   28.5,   28.7,  999.0,  999.0,  999.0,  999.0,  999.0,  999.0,  999.0,  999.0,  999.0
2000/06/10 03:10,  999.0,  999.0,  999.0,  999.0,  999.0,  999.0,  999.0,  999.0,  999.0,  999.0,  999.0,  999.0,  999.0,    1.5,    5.2,    6.6,    7.3,    8.8,   10.2,   10.9,   10.6,    9.1,    6.0,    6.5,    6.1,    6.1,    4.6,    9.6,   15.9,   17.0,   19.4,   22.9,   27.0,   28.2,   29.0,   29.5,  999.0,  999.0,  999.0,  999.0,  999.0,   29.8,  999.0,  999.0,  999.0,  999.0
2000/06/10 03:20,  999.0,  999.0,   -6.4,  999.0,  999.0,  999.0,  999.0,  999.0,  999.0,  999.0,  999.0,  999.0,    2.4,  999.0,    4.6,    5.7,    6.4,    7.9,    7.2,    7.9,    6.3,    5.6,    3.1,    4.6,    3.3,    3.3,    3.9,    9.3,   16.2,   17.1,   19.1,   22.7,   26.7,   28.5,   29.5,  999.0,  999.0,  999.0,  999.0,  999.0,  999.0,  999.0,  999.0,  999.0,  999.0,  999.0
2000/06/10 03:30,  999.0,  999.0,  999.0,  999.0,  999.0,  999.0,  999.0,  999.0,  999.0,  999.0,  999.0,  999.0,  999.0,  999.0,    4.3,    7.2,    7.8,   10.1,    9.3,    6.7,    5.9,    5.4,   12.9,    6.6,    7.2,    7.0,    6.4,    9.1,   16.0,   17.3,   19.5,   22.6,   25.8,   28.8,  999.0,  999.0,  999.0,  999.0,  999.0,  999.0,  999.0,  999.0,  999.0,  999.0,  999.0,  999.0
2000/06/10 03:40,  999.0,  999.0,  999.0,  999.0,  999.0,    0.6,  999.0,  999.0,  999.0,    0.9,  999.0,  999.0,  999.0,    3.9,    3.8,    8.7,   10.3,    9.4,   11.2,    8.3,    8.7,    6.4,    5.6,    4.9,    3.9,    4.2,    3.6,    5.8,   14.4,   16.9,   19.1,   22.7,   25.5,   28.2,  999.0,  999.0,  999.0,  999.0,  999.0,  999.0,  999.0,  999.0,  999.0,  999.0,  999.0,  999.0
2000/06/10 03:50,  999.0,  999.0,  999.0,  999.0,  999.0,  999.0,  999.0,  999.0,  999.0,  999.0,  999.0,  999.0,  999.0,    2.2,    4.4,    7.8,    7.1,    7.7,    8.7,    6.8,    7.6,    5.5,    2.9,    4.2,    4.8,    4.9,    3.2,    5.4,   14.8,   17.3,   19.8,   23.1,   26.4,   28.0,   29.0,  999.0,  999.0,  999.0,  999.0,  999.0,  999.0,  999.0,  999.0,  999.0,  999.0,  999.0
2000/06/10 04:00,  999.0,   -6.3,   -4.2,   -2.7,  999.0,  999.0,  999.0,   -3.0,  999.0,    2.6,    0.6,  999.0,  999.0,  999.0,    4.9,  999.0,  999.0,    7.9,    8.5,    7.7,    8.4,    7.6,    8.3,    8.0,    5.9,    4.7,    3.5,    6.7,   16.6,   20.2,   21.9,   23.5,   25.8,   27.8,  999.0,  999.0,  999.0,  999.0,  999.0,  999.0,  999.0,  999.0,  999.0,  999.0,  999.0,  999.0
2000/06/10 04:10,  999.0,   -9.2,   -5.3,   -3.8,   -2.8,   -3.0,   -3.9,   -2.4,  999.0,    1.9,    1.3,  999.0,  999.0,  999.0,    6.4,    6.8,    8.0,    7.5,    6.9,    6.1,    5.7,    6.2,    6.1,    5.3,    4.0,    4.1,    4.2,    9.0,   16.8,   20.8,   21.4,   23.6,   25.4,   27.7,   29.6,  999.0,  999.0,  999.0,  999.0,  999.0,  999.0,  999.0,  999.0,  999.0,  999.0,  999.0
2000/06/10 04:20,  999.0,  999.0,  999.0,   -4.3,  999.0,  999.0,  999.0,   -3.3,  999.0,    1.6,  999.0,  999.0,  999.0,  999.0,    4.6,    6.1,    8.2,    7.9,  999.0,  999.0,    7.3,    5.2,    0.2,    2.6,    6.7,    5.3,    6.4,    9.8,   17.7,   20.6,   22.0,   24.1,  999.0,   29.5,  999.0,  999.0,  999.0,  999.0,  999.0,  999.0,  999.0,  999.0,  999.0,  999.0,  999.0,  999.0
2000/06/10 04:30,   -5.0,  999.0,  999.0,   -4.3,  999.0,   -2.9,   -5.6,   -3.5,   -0.6,    1.9,   -0.0,    0.7,    2.1,  999.0,  999.0,    5.9,    5.9,    7.4,    5.5,    5.9,    6.7,    5.6,    5.8,    7.6,    5.9,    6.4,    5.8,   10.4,   17.5,   20.5,   23.2,   25.1,   26.4,  999.0,  999.0,  999.0,  999.0,  999.0,  999.0,  999.0,  999.0,  999.0,  999.0,  999.0,  999.0,  999.0
2000/06/10 04:40,   -5.8,   -6.6,   -5.5,   -5.4,   -3.3,  999.0,   -4.5,   -2.4,  999.0,    2.1,  999.0,  999.0,  999.0,    2.3,    4.6,    5.0,    4.9,    4.5,    4.7,    6.4,   10.2,    7.3,    4.1,    6.6,    7.6,    5.0,    5.3,   11.2,   17.4,   20.6,   23.4,   24.8,  999.0,  999.0,  999.0,  999.0,  999.0,  999.0,  999.0,  999.0,  999.0,  999.0,  999.0,  999.0,  999.0,  999.0
2000/06/10 04:50,   -6.0,   -6.5,   -6.0,   -4.4,  999.0,   -1.8,  999.0,   -2.0,  999.0,    2.6,  999.0,  999.0,  999.0,    3.4,    4.6,    6.7,    6.7,    2.6,    1.3,  999.0,  999.0,    9.9,   10.7,    7.2,    5.4,    5.5,    4.3,   10.5,   16.3,   20.3,   24.4,   25.3,   27.3,   28.6,  999.0,  999.0,  999.0,  999.0,  999.0,  999.0,  999.0,  999.0,  999.0,  999.0,  999.0,  999.0
2000/06/10 05:00,   -6.1,  999.0,  999.0,   -4.2,   -2.1,   -1.9,   -4.0,   -1.7,  999.0,    2.7,    1.4,    3.1,    3.0,  999.0,  999.0,    6.7,    6.2,    5.4,   12.6,   12.0,    8.0,    4.6,    6.3,    3.5,    2.7,    1.9,    4.5,   10.1,   16.1,   20.3,   24.1,   26.2,   27.5,   29.2,  999.0,  999.0,  999.0,  999.0,  999.0,  999.0,  999.0,  999.0,  999.0,  999.0,  999.0,  999.0
2000/06/10 05:10,   -6.5,   -6.0,   -4.9,   -3.8,   -1.8,   -3.0,   -4.6,   -4.2,  999.0,  999.0,    1.5,    1.5,    3.0,    2.8,    3.7,    6.0,    6.4,    6.6,    8.2,    9.4,    5.6,    5.5,    4.6,    3.9,    2.3,    1.2,    5.8,    9.2,   15.6,   20.2,   24.9,   26.7,   27.7,   28.7,  999.0,  999.0,  999.0,  999.0,  999.0,   29.6,   29.4,   29.7,   29.6,   29.7,  999.0,  999.0
2000/06/10 05:20,   -6.5,   -6.3,   -4.9,   -3.6,   -2.8,   -3.6,  999.0,   -3.7,   -1.0,    1.3,    1.7,  999.0,  999.0,    3.7,  999.0,    5.1,    7.3,    7.1,    5.9,    6.2,    6.1,    5.9,    5.1,    4.3,    3.7,    1.9,    6.3,   11.0,   16.3,   19.0,   22.4,   26.0,   26.7,   29.2,  999.0,   29.9,  999.0,   29.0,   28.8,   28.5,   28.4,   28.5,   29.2,   29.3,  999.0,  999.0
2000/06/10 05:30,   -6.8,   -6.8,   -5.7,   -3.6,   -4.2,   -3.1,   -4.0,  999.0,  999.0,  999.0,    1.9,  999.0,  999.0,  999.0,    3.7,    4.8,    6.6,    9.7,    8.0,    6.3,    7.9,    5.5,    5.1,    4.0,    2.5,   -0.1,    5.4,   11.8,   15.7,   19.3,   23.1,   26.9,   27.6,   29.0,   28.6,   28.0,   27.6,   28.0,   27.5,   27.7,   27.2,   29.0,  999.0,  999.0,  999.0,   29.5
2000/06/10 05:40,   -6.3,   -6.0,   -4.7,   -3.8,   -4.0,   -3.5,  999.0,  999.0,   -0.5,    1.1,  999.0,  999.0,    2.6,    2.7,  999.0,    6.9,    6.3,    5.5,    7.8,  999.0,    6.3,    5.2,    5.3,    4.9,    3.2,    0.6,    4.8,   11.7,   16.0,   19.3,   22.4,   25.6,   27.2,   28.0,   28.2,   26.9,   26.1,   26.8,   27.5,   27.6,   28.2,   29.7,  999.0,   29.7,  999.0,   29.3
2000/06/10 05:50,   -6.2,   -5.2,   -4.2,   -4.5,   -4.5,   -4.1,  999.0,  999.0,   -0.7,  999.0,  999.0,  999.0,    2.6,  999.0,    5.7,    6.2,    5.7,    4.8,    1.4,   10.6,    5.1,    5.1,    4.5,    3.9,    2.1,    0.2,    4.7,   12.2,   16.1,   18.1,   20.6,   24.1,  999.0,  999.0,   25.8,  999.0,   25.7,   28.2,   27.8,   28.8,   29.7,  999.0,  999.0,   29.2,   29.0,   29.0
2000/06/10 06:00,   -5.8,   -5.8,   -5.5,   -4.0,   -5.0,   -4.5,   -4.0,  999.0,  999.0,  999.0,    2.1,    3.4,    3.7,    3.8,    4.6,    7.7,    7.0,    6.3,   11.7,    6.6,    6.1,    5.6,    3.0,    1.6,   -1.0,    0.9,    4.6,   10.5,   15.9,   18.2,   21.6,   23.9,   25.2,   25.6,   24.5,   25.0,   27.4,   28.3,   28.6,   28.9,   29.4,   29.4,   29.2,   29.6,   29.2,   28.4
2000/06/10 06:10,   -5.6,   -5.7,   -5.1,   -4.2,   -4.0,   -4.6,   -5.0,   -3.9,   -0.9,    1.6,  999.0,  999.0,    3.3,  999.0,    6.6,    6.7,    6.9,    6.2,    6.5,  999.0,    5.4,    4.5,    1.1,   -1.1,   -3.9,    2.4,    8.5,   11.8,   14.5,   19.6,   21.7,   23.9,   24.1,   23.8,   24.2,   26.4,   27.5,   27.7,   27.8,   28.3,   28.6,   29.0,   29.5,   29.1,   29.7,   28.0
2000/06/10 06:20,   -5.8,   -6.4,   -5.9,   -5.0,   -4.9,   -3.8,   -4.2,   -3.0,  999.0,    1.5,    1.9,    1.3,    2.4,    2.1,    3.2,    4.9,    6.7,  999.0,  999.0,  999.0,    5.5,    3.8,    1.2,   -0.5,   -1.6,   -0.3,    6.0,   12.9,   16.2,   18.8,   21.6,   23.0,  999.0,   21.8,   23.1,   25.4,   27.8,   28.6,   29.4,   29.7,   29.8,   29.1,   29.5,  999.0,   29.7,   27.5
2000/06/10 06:30,   -6.2,   -6.3,   -6.3,   -4.1,   -5.0,   -4.2,   -4.9,   -3.5,  999.0,  999.0,    1.2,    3.4,    3.3,    3.8,    4.2,    5.8,  999.0,  999.0,  999.0,    5.9,    3.6,    2.2,  999.0,   -0.8,   -1.6,   -0.6,    6.5,   13.0,   17.8,   20.2,   21.7,   20.7,   19.7,   19.8,   21.9,   25.6,   28.8,   29.3,   29.4,   29.1,   29.1,   28.9,   29.2,   29.6,   29.3,   27.6
2000/06/10 06:40,   -5.7,   -6.0,   -5.5,   -3.8,   -4.7,   -4.3,   -5.0,   -3.5,   -0.0,  999.0,    0.6,    3.0,    2.3,    2.8,    4.6,    7.1,  999.0,  999.0,  999.0,    6.2,  999.0,  999.0,  999.0,  999.0,  999.0,  999.0,    4.1,   11.5,   16.9,   20.3,   19.7,   18.6,   18.0,   17.5,  999.0,   24.2,   27.4,   29.1,   29.4,   29.1,   28.9,   28.8,   28.8,   28.6,   28.4,   27.5
2000/06/10 06:50,   -5.7,   -6.3,   -6.4,   -4.9,   -5.6,   -4.7,   -5.9,   -3.2,  999.0,  999.0,    2.0,  999.0,    2.5,    4.0,  999.0,    7.7,  999.0,  999.0,    7.2,    5.6,  999.0,  999.0,  999.0,    2.6,    1.3,  999.0,  999.0,  999.0,  999.0,   19.4,   18.5,   17.4,   15.8,   15.4,   20.1,   23.5,   26.2,   28.5,   29.3,   29.3,   29.2,   29.2,   28.9,   29.1,   28.8,   26.8
2000/06/10 07:00,  999.0,   -6.1,   -6.6,  999.0,   -4.8,   -4.9,  999.0,   -3.3,  999.0,  999.0,    2.3,    2.8,  999.0,    1.9,    5.1,    7.5,  999.0,    7.1,    5.6,    5.0,  999.0,  999.0,  999.0,  999.0,  999.0,  999.0,  999.0,  999.0,  999.0,   16.4,   17.2,   16.3,   14.9,   17.2,   22.0,   25.8,   28.3,   28.2,   28.6,   29.0,   28.6,   28.4,   28.6,   28.2,   27.3,   25.7
2000/06/10 07:10,   -4.7,   -5.8,   -5.9,   -5.0,   -4.8,   -3.9,   -4.5,   -2.8,  999.0,  999.0,    1.5,    2.4,    1.6,    3.0,    5.4,  999.0,    7.9,    7.3,    6.0,  999.0,  999.0,  999.0,    3.5,    1.9,  999.0,  999.0,  999.0,    2.7,    7.3,   13.7,   16.7,   14.3,   14.0,   18.0,   23.9,   27.3,   28.3,   28.0,   28.0,   28.5,   27.8,   27.7,   27.4,   26.6,   25.4,   24.7
2000/06/10 07:20,   -5.1,   -6.2,   -5.7,   -4.8,   -5.0,   -4.3,  999.0,  999.0,  999.0,  999.0,    1.7,    2.9,    1.6,    4.1,    6.2,  999.0,  999.0,    6.4,    5.0,    5.6,    4.9,    4.6,  999.0,    1.9,  999.0,  999.0,  999.0,    2.0,    5.7,    8.6,   10.9,   11.5,   13.5,   19.7,   25.4,   27.7,   28.7,   28.6,   28.7,   28.3,   28.1,   28.2,   27.6,   26.6,   25.7,   25.4
2000/06/10 07:30,   -4.9,   -5.9,   -5.1,   -4.5,   -4.6,   -4.0,  999.0,  999.0,   -0.2,  999.0,    0.2,  999.0,    0.6,    2.8,    5.4,  999.0,  999.0,    6.1,  999.0,    5.3,    4.2,  999.0,  999.0,  999.0,  999.0,  999.0,  999.0,    2.6,    5.6,    9.1,   11.4,   12.1,   13.4,   19.0,   24.1,   26.4,   28.2,   28.2,   27.7,   27.5,   27.4,   26.8,   26.2,   26.0,   25.2,   24.1
2000/06/10 07:40,   -4.9,   -5.9,   -4.9,   -4.5,   -4.6,   -4.0,  999.0,  999.0,    0.3,  999.0,    0.0,  999.0,    1.2,    2.8,  999.0,    5.2,  999.0,  999.0,  999.0,    5.7,    5.1,  999.0,    2.9,  999.0,  999.0,  999.0,    1.3,    1.5,    7.1,    8.8,   10.2,   11.7,   14.0,   19.6,   24.1,   26.8,   27.8,   28.0,   28.2,   28.0,   27.6,   27.3,   27.1,   26.7,   25.5,   24.2
2000/06/10 07:50,   -5.0,   -6.1,   -4.6,   -3.8,   -4.4,   -3.9,  999.0,  999.0,  999.0,  999.0,  999.0,  999.0,    2.2,    3.5,  999.0,    5.6,  999.0,  999.0,  999.0,    5.7,    5.1,  999.0,    2.1,  999.0,  999.0,    1.8,    1.1,    4.0,    6.0,    8.0,   10.0,   12.6,   17.1,   20.8,   24.9,   27.2,   28.0,   28.1,   28.4,   27.9,   27.5,   27.4,   26.6,   26.0,   24.6,   23.3
2000/06/10 08:00,  999.0,   -5.6,   -4.3,   -4.4,   -5.1,  999.0,  999.0,  999.0,    0.1,  999.0,  999.0,  999.0,    2.1,    2.8,    4.0,    5.3,    6.8,    5.9,    5.7,    4.7,    2.4,    2.1,    1.7,  999.0,    0.6,    0.7,    0.1,    2.8,    5.8,    8.2,   10.2,   13.2,   16.9,   22.4,   26.9,   28.7,   29.0,   28.9,   29.3,   28.5,   27.2,   26.8,   26.1,   24.9,   24.3,   23.8
2000/06/10 08:10,  999.0,   -5.3,  999.0,   -4.5,   -5.4,   -4.2,   -4.1,  999.0,  999.0,  999.0,  999.0,  999.0,  999.0,    3.6,    4.0,  999.0,    7.4,    5.5,    4.9,    4.2,    3.3,    1.9,    1.6,    1.0,    0.9,    1.9,    3.0,    5.2,    7.6,    8.3,   10.4,   12.5,   17.6,   22.3,   26.2,   28.0,   29.1,   28.8,   28.7,   28.0,   26.7,   26.4,   26.0,   25.4,   24.9,   24.4
2000/06/10 08:20,   -5.0,   -5.2,   -4.9,   -4.4,   -4.4,  999.0,   -3.0,  999.0,  999.0,  999.0,  999.0,   -1.4,    2.0,    2.4,  999.0,    5.8,  999.0,    5.3,    4.1,  999.0,    3.4,    2.6,  999.0,    1.5,    0.8,    1.7,    2.1,    3.1,    5.0,    7.7,    9.4,   12.6,   17.1,   23.0,   26.9,   28.5,   29.2,   29.5,   28.9,   28.1,   27.1,   26.8,   26.0,   25.1,   24.7,   23.4
2000/06/10 08:30,   -5.2,   -6.0,   -4.5,   -4.3,   -3.9,  999.0,  999.0,   -1.1,  999.0,   -1.4,  999.0,  999.0,   -0.4,  999.0,    2.5,    5.2,  999.0,    4.4,    3.2,  999.0,    3.3,    2.2,  999.0,  999.0,    1.7,    1.7,    1.7,    1.8,    4.0,    5.2,    8.2,   13.9,   19.7,   25.0,   27.5,   29.0,   29.3,   29.4,   28.6,   27.6,   27.9,   26.8,   25.6,   25.5,   24.6,   23.8
2000/06/10 08:40,   -5.2,   -5.4,   -3.7,   -3.7,   -3.8,  999.0,  999.0,  999.0,  999.0,   -2.2,   -3.1,   -1.8,   -0.8,   -0.7,  999.0,    4.1,  999.0,  999.0,    2.9,  999.0,    3.6,    3.0,  999.0,  999.0,  999.0,  999.0,    0.8,    2.2,    2.8,    4.5,    7.7,   14.6,   20.8,   25.9,   28.4,   28.8,   29.4,   29.5,   28.1,   28.4,   27.8,   25.3,   24.7,   24.9,   23.7,   23.2
2000/06/10 08:50,   -5.1,   -5.2,   -3.7,   -3.2,  999.0,  999.0,   -1.3,  999.0,  999.0,  999.0,   -3.9,   -1.9,  999.0,    0.4,  999.0,  999.0,  999.0,    4.6,  999.0,    3.4,    4.1,    3.6,  999.0,  999.0,    2.2,    3.1,    2.1,    1.4,    2.2,    4.9,    9.6,   14.5,   20.6,   26.0,   27.2,   27.9,   29.5,   29.5,   29.0,   27.4,   25.4,   24.6,   25.2,   23.4,   23.1,   21.8
2000/06/10 09:00,   -4.9,   -5.7,   -4.0,   -3.6,   -3.1,   -2.7,   -1.2,  999.0,  999.0,   -2.4,   -3.3,   -2.2,  999.0,  999.0,    1.5,    4.2,    4.8,    4.1,  999.0,  999.0,    3.1,  999.0,  999.0,  999.0,  999.0,    1.0,    1.5,    2.1,    3.0,    5.8,   10.0,   15.4,   21.2,   25.6,   27.0,   26.9,   27.7,   28.6,   28.1,   26.1,   23.7,   24.3,   25.4,   23.7,   23.6,   23.9
2000/06/10 09:10,  999.0,   -3.0,   -3.5,   -3.1,   -3.2,  999.0,  999.0,  999.0,  999.0,   -2.7,   -2.8,  999.0,  999.0,  999.0,   -0.2,  999.0,  999.0,  999.0,  999.0,  999.0,    2.8,    2.6,    1.2,    2.1,   -0.2,    3.0,    3.1,    3.9,    3.8,    5.9,   10.5,   16.0,  999.0,   25.7,   26.8,   27.8,   28.2,   28.3,   28.2,   26.5,   24.4,   25.3,   24.6,   24.6,  999.0,   23.8
2000/06/10 09:20,   -5.1,   -4.2,   -4.0,   -2.3,  999.0,   -3.0,    0.4,  999.0,  999.0,  999.0,  999.0,  999.0,  999.0,   -1.5,  999.0,    3.5,  999.0,  999.0,  999.0,  999.0,    1.9,    1.2,    1.2,   -0.1,   -1.0,    0.9,    1.9,    2.9,    4.0,    7.1,   11.0,   16.9,   23.1,   26.1,  999.0,   27.4,   27.9,   27.9,   27.1,   25.4,   25.7,   25.3,   24.2,   24.0,   23.8,   23.1
2000/06/10 09:30,   -4.9,   -5.0,   -4.2,   -3.0,   -3.6,   -2.6,   -0.8,  999.0,  999.0,  999.0,  999.0,  999.0,  999.0,   -2.1,   -0.6,    2.0,  999.0,    2.7,  999.0,    2.9,    2.2,    1.3,    4.9,    1.4,    2.7,    2.9,    2.3,    2.3,    2.9,    7.0,  999.0,   19.2,   23.6,   25.6,   25.6,   26.5,   26.7,   26.1,   25.7,   25.7,   26.0,   24.3,   23.7,   23.5,   23.6,   22.6
2000/06/10 09:40,   -5.1,   -4.9,   -5.4,   -5.3,   -3.7,   -3.0,   -1.4,  999.0,    0.9,  999.0,  999.0,  999.0,  999.0,   -2.4,   -0.9,    2.9,  999.0,    4.4,    4.9,    3.0,    4.3,    5.0,    4.6,    3.7,    2.1,    0.3,   -0.5,   -0.1,    4.9,    9.0,   14.3,   18.1,   22.4,   23.9,   25.8,   26.0,   26.1,   26.4,   26.4,   25.7,   24.0,   23.3,   22.6,  999.0,   22.3,   21.2
2000/06/10 09:50,  999.0,   -4.4,   -3.9,   -3.2,   -3.2,   -1.7,    1.0,  999.0,  999.0,    0.4,  999.0,  999.0,   -1.8,   -4.0,   -2.5,    1.5,  999.0,    3.4,    3.4,    1.8,  999.0,    3.3,    4.2,    5.3,    3.5,    1.4,    1.1,    0.6,    4.4,    9.5,   15.8,   19.1,   23.2,   24.9,   25.3,   25.8,   27.4,   27.4,   25.5,   23.8,   23.2,   22.7,   22.7,   22.2,   21.4,   21.5
2000/06/10 10:00,   -4.7,   -4.6,   -4.6,   -3.1,   -3.1,   -2.1,  999.0,  999.0,    2.2,    1.8,    2.6,  999.0,   -4.1,   -4.2,  999.0,    0.5,  999.0,    2.6,    1.8,    3.3,  999.0,    1.8,    2.5,    3.1,    1.7,    2.3,    0.9,    3.1,    6.1,    9.6,   12.9,   18.3,   22.3,   25.3,   25.4,   26.7,   27.9,   26.3,   23.7,   22.7,   22.1,   22.5,   22.5,   21.6,   21.5,   22.1
2000/06/10 10:10,   -5.2,   -4.4,   -4.6,   -1.6,  999.0,  999.0,  999.0,  999.0,  999.0,  999.0,  999.0,  999.0,   -2.6,   -3.2,  999.0,  999.0,  999.0,    2.9,    2.6,  999.0,  999.0,    0.3,    1.0,    2.1,    2.9,    3.5,    3.7,    4.9,    7.3,   10.7,   16.7,   22.0,   24.9,   25.0,   26.0,   26.7,   25.9,   24.6,  999.0,  999.0,   22.9,   22.9,   23.1,   23.5,   22.8,   21.5
2000/06/10 10:20,   -4.0,   -4.5,   -4.3,  999.0,  999.0,  999.0,  999.0,  999.0,  999.0,  999.0,  999.0,  999.0,  999.0,  999.0,  999.0,    3.7,    2.7,  999.0,    2.5,  999.0,  999.0,    0.8,    1.1,    1.2,    2.4,    3.2,    3.9,    6.0,    7.0,   10.4,   16.6,   20.8,   22.8,   23.4,   24.4,   25.7,  999.0,   26.7,   25.7,   24.4,   23.5,   22.9,   24.7,   24.3,   22.0,   21.1
2000/06/10 10:30,   -3.8,   -4.2,   -4.3,   -3.1,   -2.9,  999.0,    1.8,  999.0,    1.9,    1.4,  999.0,  999.0,   -2.2,   -1.3,  999.0,    2.6,    3.8,    3.3,    1.0,    1.8,    0.4,    0.3,    2.0,    2.9,    3.7,    6.2,    5.5,    5.1,    6.7,   12.5,   20.2,   24.0,   23.7,   24.0,   25.7,   26.5,   26.9,   26.6,   26.2,   25.2,   24.1,   23.6,   22.8,   22.3,   21.7,   21.1
2000/06/10 10:40,   -4.8,   -4.0,   -4.5,   -2.0,   -0.6,   -1.3,    1.8,  999.0,    3.1,  999.0,    0.4,   -0.0,  999.0,   -2.3,    2.9,    3.7,    4.0,    3.6,    2.1,   -0.0,   -0.1,    1.3,    3.0,    4.1,  999.0,    3.2,    2.0,    2.4,    7.1,   12.3,   19.4,   21.9,   22.5,   23.4,   24.1,   25.7,   27.1,   27.0,   26.5,   26.3,   24.6,   24.5,   24.2,   23.4,   22.4,   22.3
2000/06/10 10:50,   -3.8,   -3.2,   -1.6,   -0.5,   -0.4,    0.8,    1.0,    2.5,    3.0,    1.4,  999.0,   -1.3,   -2.3,   -2.1,    0.5,    2.7,    4.3,    3.9,    2.2,    3.3,    2.7,    2.2,    0.4,    0.6,    0.2,   -0.8,    1.1,    4.3,    8.0,   13.2,   19.5,   21.8,   21.8,   20.7,   21.6,   25.3,   27.4,   28.1,   27.7,   26.6,   26.6,   25.3,   24.5,   23.9,   23.0,   22.9
2000/06/10 11:00,  999.0,   -2.2,   -2.1,   -1.3,   -1.9,  999.0,    1.8,    3.2,    0.4,    0.4,   -0.7,  999.0,  999.0,   -1.1,    1.4,    3.2,    4.7,    3.9,    3.6,    2.6,    2.0,   -2.8,   -4.3,   -2.7,   -1.2,   -2.3,    1.9,    6.9,    9.5,   13.8,   18.3,   20.7,   21.2,   21.6,   21.7,   22.1,   25.6,   28.1,   29.0,   29.3,   28.7,   27.6,   26.9,   25.8,   24.2,   23.2
2000/06/10 11:10,  999.0,  999.0,  999.0,   -0.8,   -1.1,    0.1,    2.1,    2.8,    2.5,    1.0,  999.0,  999.0,  999.0,  999.0,    0.9,    4.0,    4.0,    3.6,    3.9,  999.0,    4.1,    2.5,    3.0,   -3.5,   -1.8,   -1.8,    0.4,    4.1,    9.0,   14.1,   18.5,   20.0,   19.8,   19.9,   21.7,   25.6,   28.5,   29.5,   29.5,   29.2,   28.2,   28.0,   27.1,   26.5,   25.6,   24.0
2000/06/10 11:20,  999.0,   -2.7,   -2.9,  999.0,   -0.5,    0.3,    1.8,    3.0,  999.0,  999.0,  999.0,   -1.7,   -0.5,    0.5,    3.7,    6.0,    5.3,    4.5,    4.5,    4.1,    3.4,    1.6,    0.1,   -1.3,   -1.7,   -4.0,   -1.6,    3.4,   10.0,   15.7,   19.1,   19.6,   20.3,   21.4,   22.3,   26.5,   29.2,  999.0,  999.0,   29.6,   28.5,   28.5,   27.0,   25.9,   24.5,   23.0
2000/06/10 11:30,   -2.2,  999.0,   -2.5,  999.0,   -0.7,    0.8,    1.6,    1.7,  999.0,  999.0,  999.0,   -1.8,   -2.6,   -0.7,    2.3,    4.9,    7.0,  999.0,    4.3,    5.5,    4.9,  999.0,  999.0,   -1.7,   -3.7,   -4.8,   -2.1,    4.4,   10.6,   16.6,   19.4,   20.5,   21.8,   23.9,   26.8,  999.0,  999.0,  999.0,  999.0,   28.9,   28.2,   28.6,   27.2,   26.2,   25.2,   23.6
2000/06/10 11:40,   -1.7,   -1.2,  999.0,  999.0,   -0.2,    0.3,  999.0,    1.4,  999.0,  999.0,  999.0,  999.0,  999.0,  999.0,    4.1,    5.6,  999.0,  999.0,    2.5,    2.5,    3.6,    3.9,    4.6,   -1.1,   -3.1,   -4.1,   -2.6,    2.5,   10.4,   16.6,   19.4,   19.9,   20.7,   23.2,   26.9,   29.3,  999.0,  999.0,  999.0,  999.0,   29.8,   29.4,   27.4,   26.0,   23.0,   21.2
2000/06/10 11:50,  999.0,  999.0,  999.0,  999.0,   -0.7,    0.3,  999.0,    1.6,  999.0,  999.0,  999.0,   -0.8,  999.0,    1.4,    4.6,    5.8,  999.0,  999.0,  999.0,  999.0,  999.0,  999.0,    0.9,   -3.5,   -2.5,   -3.3,   -2.3,    1.7,    9.6,   16.6,   19.9,   20.9,   22.3,   25.7,   28.7,  999.0,  999.0,  999.0,  999.0,  999.0,  999.0,   28.8,   26.3,   23.8,   21.7,   20.9
2000/06/10 12:00,  999.0,  999.0,  999.0,   -1.3,    0.1,    1.1,    1.0,    1.3,  999.0,    1.6,  999.0,  999.0,  999.0,   -0.5,    2.2,    4.5,    5.5,    3.6,  999.0,  999.0,  999.0,    2.8,   -1.8,   -0.2,   -0.2,  999.0,   -2.2,    3.5,   11.3,   16.4,   20.4,   21.4,   23.6,   27.0,  999.0,  999.0,  999.0,  999.0,  999.0,  999.0,   29.5,   26.5,   24.5,   23.5,   22.2,   21.5
2000/06/10 12:10,  999.0,  999.0,   -1.7,  999.0,   -1.5,    1.0,    0.8,    1.2,    1.9,  999.0,  999.0,  999.0,  999.0,  999.0,    2.2,  999.0,    5.0,    4.4,  999.0,    1.5,   -1.0,   -0.9,   -1.0,   -3.6,   -3.3,   -3.7,   -0.4,    6.1,   12.4,   16.5,   19.7,   21.2,   24.3,   28.8,  999.0,  999.0,  999.0,  999.0,  999.0,   29.9,   29.1,   27.9,   26.5,   25.3,   23.5,   21.6
2000/06/10 12:20,  999.0,  999.0,  999.0,  999.0,  999.0,  999.0,    1.1,  999.0,  999.0,  999.0,  999.0,  999.0,    1.6,    1.3,  999.0,    4.6,    4.4,    2.3,    0.8,   -1.3,   -0.9,   -1.0,   -2.5,   -3.1,   -3.3,   -3.2,    1.4,    8.4,   13.6,   17.4,   20.0,   22.8,   26.6,   29.4,  999.0,  999.0,  999.0,   29.8,   28.8,   28.2,   28.1,   27.3,   26.7,   25.7,   24.5,   21.4
2000/06/10 12:30,  999.0,  999.0,  999.0,   -0.6,  999.0,  999.0,   -0.1,    2.8,  999.0,  999.0,  999.0,  999.0,    1.3,    2.1,    3.6,    5.2,    3.9,    3.1,   -1.3,   -3.2,   -2.1,   -2.0,   -2.8,   -2.6,   -4.4,   -2.4,    3.3,    8.9,   14.5,   18.0,   20.5,   23.6,   27.2,  999.0,  999.0,  999.0,  999.0,  999.0,   29.2,   28.3,   27.0,   26.7,   26.3,   24.9,   22.7,   20.8
2000/06/10 12:40,  999.0,   -0.6,   -0.5,  999.0,  999.0,  999.0,    0.1,  999.0,  999.0,  999.0,  999.0,  999.0,  999.0,    3.5,    5.4,    6.7,    5.4,    3.2,    0.2,   -0.9,   -0.2,   -1.6,   -4.1,   -5.2,   -4.1,    0.6,    4.9,   10.5,   15.7,   19.3,   22.1,   25.2,   28.6,  999.0,  999.0,  999.0,  999.0,  999.0,  999.0,   29.3,   28.3,   26.4,   25.0,   22.8,   20.4,   18.4
2000/06/10 12:50,   -1.3,  999.0,   -0.4,   -0.5,   -0.4,  999.0,  999.0,  999.0,    2.1,  999.0,  999.0,    3.0,    1.8,  999.0,    3.7,    5.0,    6.5,    2.7,   -0.3,   -5.3,   -0.7,   -4.7,   -4.2,   -4.9,   -3.3,    2.1,    7.7,   12.7,   16.4,   19.4,   21.9,   25.2,   28.0,  999.0,  999.0,  999.0,  999.0,  999.0,   29.2,   29.4,   28.9,   27.7,   25.6,   22.2,   20.5,   19.8
2000/06/10 13:00,  999.0,  999.0,   -0.4,  999.0,  999.0,  999.0,  999.0,    3.3,    2.7,  999.0,  999.0,  999.0,  999.0,    2.8,    3.1,    2.7,    2.2,    1.0,   -0.2,    1.0,    1.0,   -4.4,   -2.9,   -5.3,   -5.9,    1.3,    7.3,   12.7,   16.7,   19.5,   21.7,   24.9,   27.8,  999.0,  999.0,  999.0,  999.0,  999.0,  999.0,  999.0,   28.7,   28.0,   26.0,   24.8,   22.8,   22.4
2000/06/10 13:10,  999.0,  999.0,  999.0,    0.5,  999.0,   -0.7,  999.0,  999.0,    2.4,    2.3,    2.0,    2.5,    3.5,    3.4,    4.5,    5.6,    3.0,    2.0,    2.1,    1.8,    0.7,   -4.0,   -5.0,   -5.7,   -1.7,    3.8,    8.6,   12.7,   16.1,   18.8,   20.7,   24.6,   28.1,  999.0,  999.0,  999.0,  999.0,  999.0,  999.0,   29.3,   28.4,   28.0,   26.8,   25.7,   24.7,   24.3
2000/06/10 13:20,  999.0,  999.0,  999.0,   -0.6,  999.0,  999.0,  999.0,    2.9,  999.0,  999.0,  999.0,    4.9,    5.9,    5.4,    5.8,    3.6,   -0.2,   -2.3,   -1.5,   -2.7,   -4.3,   -5.5,   -7.0,   -5.3,   -0.1,    3.7,    9.8,   14.9,   17.8,   20.1,   22.0,   26.1,   29.6,  999.0,  999.0,   29.0,  999.0,  999.0,   28.0,  999.0,   26.7,   26.3,  999.0,  999.0,   24.8,   24.5
2000/06/10 13:30,  999.0,  999.0,  999.0,    1.3,    0.4,    1.8,    2.8,    2.2,    1.9,  999.0,  999.0,    4.4,  999.0,    3.9,    4.8,    4.9,    2.6,   -1.9,    0.7,   -1.5,   -4.6,   -2.7,   -2.8,   -3.1,    2.0,    7.1,   13.6,   17.2,   19.7,   21.8,   24.5,   28.4,   29.6,   29.5,   29.6,   29.3,   28.7,   28.4,  999.0,  999.0,   26.8,   25.8,   25.1,   25.2,   24.6,   24.0
2000/06/10 13:40,  999.0,  999.0,  999.0,  999.0,    1.3,    2.9,    3.6,  999.0,  999.0,  999.0,  999.0,    2.3,    1.3,   -1.3,   -1.3,   -2.6,  999.0,   -4.8,   -3.4,   -4.2,   -3.5,   -2.3,   -3.4,   -3.1,    1.3,    7.5,   13.3,   17.7,   21.0,   24.4,   27.3,   28.8,   28.9,   29.4,   29.7,  999.0,   28.7,   29.6,   29.7,   28.1,  999.0,  999.0,   26.6,   24.9,   24.9,   24.3
2000/06/10 13:50,  999.0,  999.0,  999.0,  999.0,  999.0,  999.0,  999.0,    3.6,  999.0,  999.0,  999.0,    4.5,    3.1,  999.0,   -1.0,   -6.9,  -10.2,   -8.2,   -6.1,   -1.9,   -2.7,   -4.4,   -4.0,   -1.0,    4.3,   10.9,   16.2,   19.9,   24.7,   26.9,   28.3,   29.4,   29.1,  999.0,  999.0,  999.0,  999.0,   29.6,   29.7,   28.1,   27.7,   27.4,   26.2,   25.5,   24.1,   23.3
2000/06/10 14:00,    3.2,    2.0,  999.0,    0.1,    0.2,    1.0,  999.0,    4.6,    4.6,    3.8,    4.8,    6.8,    9.9,    5.2,    1.6,   -1.4,   -2.0,   -1.1,   -3.8,   -3.7,   -3.9,   -5.3,   -5.3,    2.0,    6.2,   11.4,   16.7,   20.3,   24.1,   24.9,   27.9,   29.1,   29.5,   29.1,   29.5,  999.0,   29.4,  999.0,   27.8,   27.8,   27.1,   26.7,   25.9,   24.9,   23.6,   22.8
2000/06/10 14:10,    3.2,  999.0,    1.8,    0.5,  999.0,  999.0,    4.9,  999.0,    4.6,  999.0,    2.4,    3.2,    3.5,    2.7,   -1.2,    1.7,   -1.3,   -0.6,   -3.6,   -3.8,   -5.1,   -7.2,   -4.6,    1.9,    7.0,   11.8,   16.0,   18.7,   21.9,   25.0,   27.5,   29.0,  999.0,  999.0,  999.0,   29.4,  999.0,  999.0,   27.8,   27.0,   26.9,   25.5,   24.8,   24.7,   24.7,   24.9
2000/06/10 14:20,  999.0,  999.0,  999.0,  999.0,    2.4,    2.5,    4.6,  999.0,    5.8,    3.5,  999.0,    6.7,    6.4,    5.9,    3.3,    4.1,    0.6,   -2.1,   -4.5,   -4.6,   -7.8,   -5.9,    0.1,    3.8,    9.0,   14.0,   18.2,   21.0,   24.2,   27.0,   28.4,   29.3,  999.0,   29.0,  999.0,   29.2,   28.7,  999.0,   26.4,   26.3,   25.2,   24.3,   24.2,   24.0,   24.8,   24.0
2000/06/10 14:30,  999.0,    2.0,  999.0,    1.8,    3.0,    4.4,    6.0,  999.0,    4.9,  999.0,    6.2,    7.3,    8.0,   10.6,   11.5,  999.0,    1.0,   -1.8,   -3.8,   -5.1,   -8.0,   -6.1,   -1.4,    4.1,   10.1,   15.7,   19.0,   22.1,   25.9,   28.0,   29.2,  999.0,   29.0,  999.0,  999.0,   29.7,   28.4,   26.8,   26.0,   25.9,   25.1,   25.1,   25.6,   25.7,   25.7,   24.8
2000/06/10 14:40,    0.9,  999.0,  999.0,    2.9,    2.8,    4.3,  999.0,    6.4,    6.1,    4.8,    3.9,    4.4,    2.2,   -4.0,   -1.8,   -1.4,   -3.5,   -3.9,   -3.8,   -6.2,   -8.4,   -3.9,    1.3,    7.2,   13.0,   17.1,   20.5,   23.8,   26.8,   28.2,   28.3,  999.0,  999.0,  999.0,   29.0,   27.7,   25.4,   26.2,   27.3,   26.8,   27.1,  999.0,   27.0,   26.0,   25.7,   24.6
2000/06/10 14:50,    2.6,    2.1,    2.3,    2.5,    3.8,    3.0,    4.3,    5.2,  999.0,  999.0,    3.2,    1.1,    2.2,   -3.0,   -2.0,   -3.9,   -2.6,   -2.1,   -4.1,   -7.2,   -8.3,   -3.2,    2.4,    7.9,   13.7,   17.9,   21.5,   25.5,   27.8,   28.4,   29.4,  999.0,  999.0,  999.0,   28.1,  999.0,  999.0,   27.7,   27.4,   27.1,   26.2,   26.6,   25.2,   23.7,   22.4,   20.9
2000/06/10 15:00,  999.0,  999.0,    2.5,  999.0,    5.1,  999.0,  999.0,  999.0,  999.0,    6.6,    4.0,    1.5,   -1.0,    1.3,    0.6,    2.9,    1.6,   -2.5,   -5.9,   -7.6,   -9.2,   -2.6,    2.9,    8.8,   14.8,   19.1,   23.2,   27.0,   28.1,   29.6,  999.0,  999.0,  999.0,  999.0,   28.8,  999.0,   29.0,  999.0,   28.8,   27.5,   26.0,   24.6,   23.6,   22.3,   20.5,   18.2
2000/06/10 15:10,    2.0,  999.0,  999.0,    3.0,    4.7,    7.0,    7.2,  999.0,   10.0,  999.0,    3.9,    1.8,    2.1,    0.5,   -0.9,   -1.7,   -2.4,   -4.2,   -6.5,  999.0,   -6.0,   -0.2,    4.6,    9.8,   15.7,   19.6,   24.4,   27.3,   29.0,   28.6,  999.0,   29.1,   29.7,  999.0,   29.4,   29.0,   28.2,   27.6,   27.5,   26.6,   25.6,   24.9,   24.1,   22.8,   21.5,   20.5
2000/06/10 15:20,    2.8,    2.8,    1.7,    2.6,    2.1,    4.3,    5.6,    8.1,    9.3,    5.5,    0.6,    1.9,    0.6,   -0.3,   -1.0,   -3.2,   -5.0,   -5.8,   -8.3,  999.0,   -4.0,    0.7,    6.1,   10.9,   16.8,   21.2,   25.2,   26.8,   27.5,   23.8,   27.3,  999.0,  999.0,   28.0,   28.6,   28.1,   26.5,   26.7,   26.1,   25.1,   25.4,   24.8,   24.3,   23.6,   23.6,  999.0
2000/06/10 15:30,  999.0,  999.0,  999.0,  999.0,  999.0,    6.8,    1.5,    9.5,    4.7,    4.4,    2.2,    0.8,   -0.1,   -0.7,   -2.0,   -6.0,   -6.5,   -9.6,   -9.0,   -4.7,    1.1,    6.4,   11.1,   15.1,   19.1,   22.1,   26.2,   26.8,   26.4,   28.8,  999.0,   29.0,   28.8,   28.0,   26.8,   26.0,   26.5,   25.3,   25.9,   25.4,   24.9,   25.8,   25.2,   23.1,   21.6,   22.0
2000/06/10 15:40,  999.0,  999.0,  999.0,    4.1,    0.2,  999.0,  999.0,    4.9,    5.1,    3.4,    1.2,   -1.0,   -1.5,   -2.1,   -4.5,   -6.7,   -7.4,   -8.5,   -6.8,   -2.0,    3.8,    8.0,   11.9,   15.8,   20.2,   23.3,   25.6,   26.4,   28.2,   29.1,  999.0,   28.4,   28.4,   26.8,   26.3,   26.9,   26.7,   26.7,   26.9,   27.5,   26.5,  999.0,   24.6,   23.3,   22.4,   21.4
2000/06/10 15:50,  999.0,  999.0,  999.0,  999.0,    5.9,    7.0,    9.2,    9.0,    6.0,    4.4,    0.8,    1.8,   -0.6,   -1.1,   -1.2,   -4.6,   -7.9,  -10.0,   -5.4,   -0.6,    3.8,    7.8,   12.3,   16.8,   20.9,   23.7,   25.3,   27.3,   28.5,  999.0,   27.6,   26.6,   27.6,  999.0,   29.1,  999.0,   27.1,   26.5,  999.0,   25.5,   24.4,   23.5,   22.3,   21.6,   21.8,   21.0
2000/06/10 16:00,  999.0,  999.0,    6.5,    7.4,    5.2,    4.7,    3.5,    1.8,    5.5,    0.9,    0.5,    0.5,   -1.0,   -2.6,   -2.1,   -4.7,   -8.4,  -11.2,   -5.0,    1.0,    5.3,    8.8,   12.5,   17.4,   21.0,   23.8,   26.3,   28.2,   29.0,   27.2,   26.3,   27.3,   28.8,  999.0,  999.0,   27.4,   27.5,   26.7,  999.0,   24.7,   24.0,   23.4,   23.8,   23.3,   21.9,   20.7
2000/06/10 16:10,    4.0,    5.1,    8.5,    7.1,    8.0,    6.6,    3.5,    1.2,    0.6,    2.2,    3.3,   -0.8,   -1.4,   -2.0,   -3.9,   -3.8,   -8.5,  -11.3,   -3.9,    2.4,    6.8,    8.9,   13.8,   18.9,   22.5,   25.1,   27.1,   28.2,   27.5,   27.5,   27.8,   28.8,   29.6,   28.8,  999.0,   27.8,   26.8,  999.0,   25.1,   25.0,   24.3,   24.1,   23.0,   22.4,   20.9,   20.5
2000/06/10 16:20,    6.5,  999.0,    7.6,    7.0,    4.9,    4.7,    3.4,    0.2,   -0.6,   -0.5,   -2.0,    1.5,   -0.6,   -1.3,   -3.6,   -8.3,   -9.3,  -11.4,   -3.9,    4.1,    7.3,   11.2,   16.7,   21.3,   24.0,   26.6,   27.3,   27.0,   27.1,   27.4,   27.1,   28.4,   29.4,   28.6,   28.7,   28.4,   26.2,   25.4,   25.8,   25.2,   23.4,   22.3,   20.3,  999.0,   16.5,   16.2
2000/06/10 16:30,    6.5,    4.7,    6.1,    5.3,    4.5,    2.4,    2.3,   -0.3,   -0.6,   -2.3,   -0.4,    0.2,   -3.1,   -3.5,   -5.8,   -9.4,  -10.5,   -6.7,   -0.5,    4.0,    7.4,   11.7,   16.7,   21.1,   24.9,   26.2,   26.2,   26.5,   26.8,   27.0,   28.2,   29.1,   29.3,   29.5,   29.2,   27.6,   27.3,   27.4,   26.3,   25.1,   23.1,   20.9,   18.5,   16.7,   15.6,   15.6
2000/06/10 16:40,  999.0,    3.4,    9.2,    6.6,    4.4,   -0.3,   -1.6,    2.7,    0.6,    2.0,    1.2,   -1.1,   -3.0,   -6.2,  999.0,  999.0,  -10.2,   -3.7,    2.2,    5.2,    7.7,   12.1,   16.9,   20.8,   23.2,   24.4,   24.8,   26.6,   27.1,   28.2,   29.1,  999.0,  999.0,  999.0,  999.0,  999.0,  999.0,   26.3,   25.2,   21.0,   17.8,   15.8,   14.8,   14.5,   14.2,   14.4
2000/06/10 16:50,  999.0,  999.0,  999.0,  999.0,    8.3,    5.2,    4.0,    3.0,    2.3,    0.0,   -2.3,   -4.4,   -7.0,   -9.3,  -10.4,  -12.0,   -7.3,   -0.5,    3.3,    6.5,    8.5,   12.5,   17.1,   20.5,   22.4,   23.1,   25.5,   26.9,   27.6,   27.8,   29.0,   28.6,   28.5,   28.4,   28.7,   27.2,   26.0,   25.5,   22.9,   19.1,   15.6,   14.0,   13.3,   13.0,   12.9,   14.3
2000/06/10 17:00,  999.0,    6.7,  999.0,  999.0,    8.4,    6.5,    4.1,    3.4,    2.3,    0.1,   -0.7,   -2.6,   -5.0,   -6.6,   -9.8,  -10.6,   -5.8,    0.8,    4.6,    6.7,    9.9,   14.6,   18.2,   20.4,   21.2,   24.4,   25.8,   26.6,   26.8,   27.4,   27.2,   28.7,  999.0,   28.9,  999.0,   27.3,   26.5,   22.7,   18.1,   15.5,   14.8,   14.4,   14.4,   14.9,   15.6,   16.0
2000/06/10 17:10,  999.0,    7.3,    9.2,  999.0,  999.0,    4.5,    2.9,    1.8,    1.5,    0.3,   -0.7,   -2.0,   -4.4,   -4.4,   -8.6,  -11.0,   -3.7,    1.4,    4.6,    9.1,   12.4,   15.9,   19.1,   19.8,   20.9,   25.0,   25.8,   27.0,   27.8,   29.0,   29.7,  999.0,  999.0,   28.7,   27.4,  999.0,   24.7,   20.8,   17.8,   15.4,   14.5,   14.3,   14.0,   15.8,   16.3,   16.9
2000/06/10 17:20,  999.0,  999.0,  999.0,  999.0,    9.0,    6.6,    5.0,    2.9,    1.2,    0.8,   -0.5,   -1.9,   -5.0,  999.0,  -10.7,   -8.8,   -2.2,    2.8,    4.7,    8.5,   12.3,   15.5,   17.9,   18.8,   21.6,   24.5,   25.4,   26.2,   28.4,   29.0,   29.8,   29.1,  999.0,   28.8,   28.1,   27.3,   23.5,   19.3,   16.3,   15.0,   13.7,   14.2,   14.4,   15.4,   16.9,   17.6
2000/06/10 17:30,    6.4,  999.0,  999.0,    9.6,    8.5,    5.1,    4.5,    1.4,   -0.2,   -2.8,   -3.4,   -5.7,   -8.1,  999.0,  -11.0,  -10.4,   -4.2,    1.2,    5.0,    8.5,   11.7,   14.4,   17.1,   19.0,   21.2,   23.9,   25.1,   27.9,   28.6,   29.2,   29.0,   28.4,   28.2,   28.0,   28.5,   25.9,   21.9,   19.2,   17.2,   16.0,   16.0,   16.3,   15.8,   17.2,   18.4,   19.3
2000/06/10 17:40,    4.1,  999.0,    9.9,   10.5,   10.2,    6.2,    2.4,    0.3,   -1.8,   -4.0,   -4.4,   -5.6,   -7.6,   -8.9,  -11.6,  -11.2,   -7.7,   -0.1,    4.2,    8.0,   10.6,   14.1,   16.8,   18.5,   20.5,   23.6,   26.6,   28.7,   29.1,   29.1,   29.0,  999.0,   29.0,   29.2,   28.4,   25.3,   21.0,   16.8,   16.4,   15.9,   16.5,   16.3,   16.5,   17.6,   19.0,   18.6
2000/06/10 17:50,    3.0,    6.6,    8.4,   10.2,    9.7,    7.9,    3.8,    1.4,   -0.2,   -3.5,   -3.9,   -4.7,   -7.0,   -8.7,  -11.8,  -13.7,   -9.3,   -1.6,    4.1,    7.4,   11.2,   14.1,   16.6,   19.2,   21.3,   24.4,   27.8,   28.4,   29.5,   29.3,   29.1,  999.0,  999.0,  999.0,  999.0,  999.0,   22.5,   20.5,   18.9,   17.6,   16.1,   15.8,   15.6,   17.3,   17.7,   18.2
2000/06/10 18:00,    4.8,    7.3,    8.5,   10.6,   11.0,    8.2,    4.1,   -0.7,   -3.3,   -4.6,   -6.5,   -7.0,   -7.5,  999.0,  999.0,  -13.9,   -8.7,   -2.0,    3.0,    7.1,   11.8,   15.1,   18.0,   19.9,   22.0,   25.3,   28.2,   29.2,   29.2,   28.9,   28.5,  999.0,   28.4,   27.9,  999.0,   25.9,   24.2,   21.1,   17.0,   16.7,   16.5,   15.7,   16.1,   16.9,   17.6,   18.4
2000/06/10 18:10,  999.0,    6.0,    9.4,    9.9,    9.0,    7.6,    4.4,    1.7,   -0.7,   -2.8,  999.0,   -4.6,   -4.6,   -8.0,  -12.3,  999.0,   -9.0,   -2.5,    2.4,    6.9,   12.0,   14.7,   16.9,   20.5,   23.5,   26.1,   28.5,   29.8,   29.6,  999.0,  999.0,   29.2,  999.0,   29.8,   28.6,  999.0,   25.9,   22.5,   21.3,   19.5,   18.0,   17.6,   17.4,   17.9,   18.5,   18.9
2000/06/10 18:20,    2.5,    4.6,    8.1,    8.4,    9.4,    7.8,    5.4,    2.9,   -0.3,   -0.7,   -1.9,   -2.2,   -4.7,   -8.4,  -11.7,  -13.8,   -8.9,   -1.5,    2.8,    7.9,   13.6,   16.2,   18.6,   21.3,   23.9,   26.6,   28.5,   29.2,   29.4,   29.1,  999.0,  999.0,  999.0,  999.0,   27.2,  999.0,   25.1,   24.1,   23.2,   21.5,   20.6,   19.4,   19.2,   17.5,   17.4,   18.5
2000/06/10 18:30,    2.6,    4.2,    7.4,    9.6,    9.7,    7.3,    5.4,    2.3,    0.2,   -2.8,   -4.0,   -4.2,   -6.8,   -9.1,  -12.3,  -13.8,   -7.1,    0.3,    4.1,    8.5,   12.9,   15.8,   17.9,   20.5,   23.8,   26.6,   28.6,   29.0,  999.0,  999.0,  999.0,  999.0,   29.6,   28.0,   27.3,   26.2,   25.9,   24.7,   23.5,   22.7,   21.3,   19.5,   18.6,   18.1,   18.1,   18.0
2000/06/10 18:40,    1.4,    2.4,    4.8,    9.5,    8.8,    6.2,    3.7,    0.6,    0.0,   -0.7,   -1.3,   -4.5,   -8.1,  -11.8,  -15.2,  -13.3,   -3.5,    4.4,    7.7,   10.3,   13.8,   16.4,   18.6,   20.7,   24.5,   26.6,   27.7,   28.9,   29.3,  999.0,  999.0,  999.0,   29.5,   28.1,   27.9,   26.7,   27.0,   26.2,   25.2,   22.6,   21.4,   19.9,   19.2,   19.0,   18.4,   18.8
2000/06/10 18:50,    0.7,    1.8,    3.7,    7.1,    8.3,    6.0,    3.1,    1.4,   -0.6,   -1.7,   -4.6,   -7.0,  999.0,  -12.4,  -16.6,   -8.1,    0.7,    5.5,    8.4,   10.7,   13.5,   16.1,   18.4,   21.5,   24.2,   26.0,   27.3,   29.0,   29.5,   29.7,  999.0,  999.0,   29.7,   29.5,   29.5,   28.6,   28.2,   27.8,   27.2,   24.7,   20.8,   20.0,  999.0,   18.6,   18.5,   18.5
2000/06/10 19:00,    1.9,    3.8,    5.4,    8.3,    8.3,    5.5,    3.1,    0.8,    0.2,   -2.1,   -3.6,   -7.0,   -9.7,  -12.5,   -9.7,   -2.0,    3.8,  999.0,    8.4,   10.3,   13.9,   16.3,   17.8,   20.4,   22.9,   25.5,   27.5,   28.9,   29.7,   29.7,  999.0,  999.0,  999.0,   29.2,   29.1,   29.5,  999.0,   28.6,   27.5,   25.0,   21.1,   20.2,   18.4,   17.8,   17.7,   18.0
2000/06/10 19:10,    2.0,    3.7,    7.2,    9.3,    7.6,    4.7,    2.0,    0.2,   -1.3,   -4.3,   -6.7,  -11.0,  -15.3,  -16.1,   -7.9,    0.9,    5.3,  999.0,  999.0,    9.6,   11.9,   14.6,   17.3,   18.9,   21.1,   24.5,   27.1,   29.0,   29.7,  999.0,  999.0,  999.0,  999.0,  999.0,  999.0,  999.0,  999.0,   28.6,   26.4,   22.9,   20.5,   18.7,   18.5,   17.7,   17.3,   16.8
2000/06/10 19:20,    2.9,    4.5,    8.0,    8.4,    6.9,    3.1,    0.5,   -1.3,   -1.6,   -4.2,   -6.2,  -11.2,  -15.0,  -14.5,   -6.3,   -0.7,    4.3,    7.8,  999.0,    9.5,   10.3,   12.5,   15.8,   18.6,   21.9,   25.2,   27.0,   29.1,  999.0,  999.0,  999.0,  999.0,  999.0,  999.0,  999.0,  999.0,   29.8,   28.7,   26.6,   24.1,   22.7,   20.1,   18.5,   17.9,   18.0,   19.2
2000/06/10 19:30,    3.4,    6.1,    8.0,    8.0,    6.5,    3.5,   -0.4,   -1.2,   -2.1,   -3.0,   -5.4,  -10.0,  -13.2,  -11.7,   -5.0,   -1.5,    2.8,    7.3,  999.0,  999.0,   10.8,   13.3,   16.4,   19.2,   22.3,   24.6,   27.0,   29.2,   29.8,   29.3,  999.0,  999.0,  999.0,  999.0,  999.0,  999.0,   29.6,   28.6,   26.7,   24.5,   22.4,   20.6,   19.1,   18.5,   18.5,   19.4
2000/06/10 19:40,    3.7,    7.1,    8.3,    8.1,    6.9,    3.8,    1.3,   -0.6,   -1.7,   -4.4,   -6.4,  -11.2,  -13.1,   -9.1,   -3.1,    2.5,    4.5,  999.0,  999.0,  999.0,   11.7,   14.5,   17.3,   19.6,   22.4,   25.7,   27.6,   28.7,   29.5,  999.0,  999.0,  999.0,  999.0,  999.0,  999.0,  999.0,   28.0,  999.0,   26.0,   24.0,   22.8,   20.9,   20.1,   18.8,   18.8,   18.9
2000/06/10 19:50,    3.7,    6.0,  999.0,  999.0,  999.0,    3.2,    1.0,   -0.5,   -2.1,  999.0,  999.0,  999.0,  -12.3,   -7.8,   -0.6,  999.0,  999.0,  999.0,    9.4,  999.0,   11.4,   13.8,   16.5,   18.6,   22.0,   26.0,   28.6,   29.4,   29.7,  999.0,  999.0,  999.0,  999.0,  999.0,  999.0,   29.6,   27.7,   27.1,  999.0,  999.0,   22.6,   20.2,   19.3,   19.2,   18.7,   18.6
2000/06/10 20:00,    2.5,    4.7,    6.2,    6.3,    5.6,    3.2,   -0.2,   -1.8,  999.0,  999.0,  999.0,  999.0,  -14.0,   -8.8,   -1.6,    4.0,  999.0,    8.5,  999.0,  999.0,   11.0,   12.9,   15.8,   18.8,   22.5,   26.7,   29.6,  999.0,  999.0,  999.0,  999.0,  999.0,  999.0,  999.0,  999.0,  999.0,   29.2,   27.4,   26.2,   24.5,   22.0,   21.0,   20.3,   19.4,   19.1,   18.8
2000/06/10 20:10,  999.0,  999.0,    5.8,    6.1,    5.6,    1.9,   -0.5,   -2.5,   -3.5,   -7.3,  999.0,  -13.3,  -14.5,   -8.5,   -1.3,    2.8,  999.0,  999.0,  999.0,    9.5,  999.0,   12.3,   16.0,   19.3,   24.1,   28.0,  999.0,  999.0,  999.0,  999.0,  999.0,  999.0,  999.0,  999.0,  999.0,  999.0,  999.0,   28.4,   27.2,   25.0,   23.0,   21.5,   21.0,   20.4,   19.9,   18.1
2000/06/10 20:20,    3.2,    5.5,    6.3,    5.4,    5.4,    1.1,   -0.2,   -2.2,   -4.3,  999.0,  -11.3,  -13.1,  -12.9,   -7.2,   -0.7,    4.1,    7.0,  999.0,  999.0,  999.0,   10.0,   12.9,   16.6,   20.2,   25.4,   29.0,  999.0,  999.0,  999.0,  999.0,  999.0,  999.0,  999.0,  999.0,  999.0,   29.7,   29.8,   29.0,   27.6,   24.9,   21.9,   20.3,   20.5,   19.0,   17.5,  999.0
2000/06/10 20:30,  999.0,    5.6,    5.3,    4.7,    3.1,   -0.0,   -2.4,   -5.6,   -8.1,  999.0,  -12.0,  999.0,  -12.1,   -5.5,    1.4,    5.1,    7.3,  999.0,  999.0,  999.0,   10.5,   14.0,   17.2,   21.1,   25.8,   29.0,  999.0,  999.0,  999.0,  999.0,  999.0,  999.0,  999.0,  999.0,  999.0,  999.0,   29.2,   28.9,   27.6,   26.1,   24.4,   22.4,   21.3,   19.7,   17.4,   16.5
2000/06/10 20:40,    4.3,    5.3,    5.6,    4.6,    2.8,   -0.3,   -2.8,   -5.1,   -7.0,  -10.1,  999.0,  999.0,  -10.3,   -4.1,    2.3,  999.0,    8.6,  999.0,  999.0,  999.0,   11.3,   14.7,   17.9,   22.5,   26.9,  999.0,  999.0,  999.0,  999.0,  999.0,  999.0,  999.0,  999.0,  999.0,   29.8,   29.2,   29.5,   29.3,   27.9,   26.2,   24.5,   22.7,   21.6,   20.8,  999.0,   17.2
2000/06/10 20:50,    4.0,    4.8,    5.1,    4.4,    3.3,    0.2,   -2.1,   -5.4,   -7.5,   -8.2,  -10.1,  -13.0,   -9.8,   -2.2,    4.3,  999.0,  999.0,  999.0,  999.0,  999.0,   12.9,   16.1,   20.1,   24.9,   29.3,  999.0,  999.0,  999.0,  999.0,  999.0,  999.0,  999.0,  999.0,  999.0,  999.0,  999.0,   29.5,   29.6,   28.1,   26.5,   23.3,   21.2,  999.0,   21.7,   19.8,   18.1
2000/06/10 21:00,    3.9,    4.9,    5.1,    4.1,    2.8,   -0.7,   -3.1,   -5.2,   -6.7,  999.0,  999.0,  -10.5,   -7.0,   -0.6,  999.0,  999.0,  999.0,  999.0,  999.0,  999.0,   12.8,   16.0,   20.8,   25.1,   28.6,   29.6,   29.6,   29.8,   29.8,  999.0,  999.0,  999.0,  999.0,  999.0,  999.0,  999.0,  999.0,  999.0,   27.7,   26.1,   22.8,   21.7,   21.1,   21.1,  999.0,  999.0
2000/06/10 21:10,    3.2,    4.7,    5.0,    3.9,    2.4,   -1.3,   -3.8,   -5.5,   -7.0,  999.0,  999.0,  -10.9,   -5.5,   -0.7,    4.6,  999.0,  999.0,  999.0,  999.0,  999.0,   12.1,   15.1,   20.6,   24.8,   27.6,  999.0,  999.0,  999.0,  999.0,  999.0,  999.0,  999.0,  999.0,  999.0,  999.0,  999.0,   29.3,   27.8,   26.0,   24.2,   22.6,   22.3,   21.9,   21.6,   21.6,   21.1
2000/06/10 21:20,    2.9,    4.8,    5.3,    3.9,    1.3,   -2.5,   -4.7,   -6.2,   -7.8,  999.0,  999.0,  -11.7,   -5.1,    1.4,    5.7,  999.0,    6.7,  999.0,  999.0,    9.6,   12.3,   16.6,   20.8,   24.2,   28.7,   29.8,  999.0,  999.0,  999.0,  999.0,  999.0,  999.0,  999.0,  999.0,  999.0,  999.0,   29.2,   28.4,   27.2,   24.8,   23.1,   22.5,   21.3,   21.1,   20.6,   20.3
2000/06/10 21:30,    4.2,    5.3,    5.7,    3.8,    0.0,   -3.9,   -6.7,   -8.5,   -9.9,  999.0,  -11.0,   -8.2,   -3.7,    1.9,    5.1,    6.6,  999.0,    6.5,  999.0,    9.3,   12.6,   17.0,   21.8,   26.1,   28.6,   28.8,   29.7,  999.0,  999.0,  999.0,  999.0,  999.0,  999.0,  999.0,  999.0,  999.0,   29.1,   28.3,   26.9,   25.3,   23.5,   23.0,  999.0,   21.4,   20.5,   19.3
2000/06/10 21:40,    4.5,    5.0,    4.7,    3.6,    0.3,   -3.6,   -6.8,   -8.0,   -8.3,   -8.0,  999.0,   -6.8,   -2.3,    2.7,  999.0,    6.3,    6.1,  999.0,  999.0,    8.8,   12.4,   17.6,   23.1,   26.5,   27.3,   28.2,   29.4,  999.0,  999.0,  999.0,  999.0,  999.0,  999.0,  999.0,  999.0,  999.0,  999.0,   29.1,   26.7,  999.0,  999.0,   21.8,   20.9,   19.4,   17.6,   16.8
2000/06/10 21:50,    4.4,    5.2,    4.4,    2.6,   -1.0,   -3.9,   -6.4,   -7.2,  -10.2,  -12.5,   -9.6,   -3.7,    1.5,  999.0,  999.0,  999.0,  999.0,  999.0,  999.0,  999.0,   11.7,   17.0,   22.3,   25.9,   26.7,   28.3,   29.5,  999.0,  999.0,  999.0,  999.0,  999.0,  999.0,  999.0,  999.0,  999.0,  999.0,   29.5,   27.6,   25.7,   23.5,   22.4,   21.7,   20.4,   19.6,   19.5
2000/06/10 22:00,    4.2,    5.1,    4.6,    1.9,   -0.8,   -4.1,   -8.6,  -10.1,  -10.9,  -13.3,  -10.1,  999.0,  999.0,    4.8,  999.0,  999.0,  999.0,  999.0,  999.0,    8.3,   11.7,   16.5,   21.9,   25.3,   26.8,   28.8,   29.2,  999.0,  999.0,  999.0,  999.0,  999.0,  999.0,  999.0,  999.0,  999.0,  999.0,   29.2,   27.2,   26.5,   25.3,   23.8,   21.7,   19.5,   19.0,   19.9
2000/06/10 22:10,    3.9,    5.2,    5.2,    2.0,   -1.1,   -3.9,   -6.1,   -8.4,  -10.3,  -12.0,  -11.4,   -9.2,   -3.5,    1.0,    3.0,    3.5,    3.9,  999.0,  999.0,    9.0,   12.0,   16.5,   21.6,   25.4,   27.6,   28.5,   29.7,  999.0,  999.0,  999.0,  999.0,  999.0,  999.0,  999.0,  999.0,  999.0,   29.8,   28.8,   28.2,   28.0,   26.2,   24.5,   22.9,   21.0,   21.1,   21.3
2000/06/10 22:20,    3.1,    4.8,    5.1,    3.5,   -1.3,   -5.3,   -7.1,   -9.8,  -10.6,  -10.0,  -10.4,   -4.1,   -1.2,    4.3,    5.7,    6.2,    6.2,    7.2,  999.0,    9.1,   12.4,   17.4,   22.4,   25.8,   27.7,   28.7,   29.8,  999.0,  999.0,  999.0,  999.0,  999.0,  999.0,  999.0,  999.0,  999.0,   29.5,   29.1,   28.8,   28.8,   26.5,   24.0,   21.8,   20.4,   19.7,   19.0
2000/06/10 22:30,    3.0,    4.9,    4.9,    2.1,   -0.8,   -4.2,   -6.9,   -9.0,  -10.3,  -12.1,   -7.2,   -2.3,    1.4,    5.1,  999.0,    4.9,  999.0,  999.0,    7.8,    9.1,   12.9,   17.9,   23.1,   26.0,   27.7,   29.5,  999.0,  999.0,  999.0,  999.0,  999.0,  999.0,  999.0,  999.0,  999.0,  999.0,   29.5,   28.6,   28.5,   28.6,   26.5,   24.4,  999.0,   21.6,   20.2,   20.1
2000/06/10 22:40,    3.0,    4.5,    4.6,    2.3,   -1.4,   -4.3,   -7.1,   -8.7,  -10.1,  -10.1,   -4.8,   -1.1,    2.2,    4.7,    5.3,    5.2,  999.0,  999.0,    6.9,    9.4,   13.8,   19.1,   23.7,   25.9,   28.6,   29.8,  999.0,  999.0,  999.0,   29.9,   29.7,  999.0,  999.0,  999.0,  999.0,  999.0,   30.0,   28.9,   29.0,   28.1,   25.3,  999.0,   21.9,   20.4,   20.0,   19.5
2000/06/10 22:50,    2.0,    4.1,    4.1,    2.5,   -0.6,   -4.3,   -6.8,   -8.3,   -9.9,   -8.2,   -3.0,  999.0,  999.0,  999.0,  999.0,  999.0,  999.0,  999.0,    6.9,   10.5,   15.5,   20.6,   23.7,   26.7,   28.2,   29.6,  999.0,  999.0,   29.9,  999.0,  999.0,  999.0,  999.0,  999.0,  999.0,  999.0,  999.0,  999.0,   28.7,   26.8,  999.0,  999.0,   22.4,   20.6,   20.8,   20.4
2000/06/10 23:00,    2.7,    3.7,    4.0,    3.1,   -0.9,   -5.0,   -7.2,   -8.6,   -9.8,   -6.4,   -1.7,  999.0,  999.0,  999.0,    4.7,  999.0,  999.0,  999.0,    7.7,   11.5,   16.2,   21.5,   24.1,   26.5,   28.6,   29.7,   28.9,  999.0,  999.0,  999.0,  999.0,  999.0,  999.0,  999.0,  999.0,  999.0,  999.0,   29.6,  999.0,   23.0,   21.5,   19.2,   19.7,   20.0,   19.5,   19.4
2000/06/10 23:10,    2.2,    2.9,    3.6,    1.8,   -1.8,   -5.1,   -6.7,   -7.7,   -8.2,   -4.4,   -1.4,  999.0,    4.3,  999.0,    3.8,  999.0,  999.0,  999.0,    8.8,   12.6,   17.0,   22.3,   25.9,   26.8,   27.8,   28.0,   28.9,   29.5,  999.0,  999.0,  999.0,  999.0,  999.0,  999.0,  999.0,   29.5,   28.3,   26.5,   22.1,   20.1,   18.7,   17.7,   17.7,   19.0,   19.3,   19.4
2000/06/10 23:20,    3.2,    4.0,    3.4,    1.2,   -3.2,   -5.9,   -7.5,   -8.6,  -10.1,   -4.2,    0.3,    0.3,    3.6,    4.5,    3.8,  999.0,  999.0,    7.3,    9.4,   12.9,   17.7,   22.8,   23.3,   24.9,   26.5,   27.7,   29.1,   29.4,   29.7,   29.7,  999.0,  999.0,  999.0,  999.0,  999.0,   28.7,   25.8,   22.8,   20.3,   19.7,   19.0,   18.1,   17.7,   18.4,   18.9,   20.0
2000/06/10 23:30,    3.3,    3.4,    3.6,    1.2,   -2.1,   -4.4,   -5.8,   -6.2,   -6.7,   -1.8,   -0.2,    0.5,    3.7,    4.2,    3.7,  999.0,    5.7,    8.0,    9.1,   12.7,   17.7,   21.1,   23.5,   25.1,   26.9,   27.8,   27.9,   28.5,   29.1,   29.1,   29.8,  999.0,  999.0,  999.0,   29.4,   28.5,   26.1,   24.0,   22.1,   20.9,   19.0,   17.3,   17.4,   18.1,   18.9,   20.3
2000/06/10 23:40,    3.5,    3.9,    2.9,    0.0,   -2.9,   -5.0,   -5.9,   -6.5,   -6.8,   -1.5,  999.0,    0.5,  999.0,    4.0,    3.9,  999.0,    7.6,    8.8,    9.4,   13.0,   17.9,   20.9,   22.8,   24.3,   25.5,   26.5,   27.2,   27.9,   28.2,   29.7,  999.0,  999.0,   29.5,   29.0,   27.7,   25.5,   23.0,   20.4,   18.5,   17.9,   18.3,   17.8,   17.9,   19.6,   20.1,   20.7
2000/06/10 23:50,    3.4,    3.5,    2.5,   -0.5,   -3.2,   -5.4,   -6.4,   -5.8,   -5.1,   -2.5,    1.5,    2.0,  999.0,  999.0,    5.4,    6.4,    8.7,    8.5,   10.5,   14.3,   17.7,   20.5,   22.5,   24.4,   25.5,   25.4,   26.3,   27.1,   29.1,  999.0,   28.9,   28.6,   28.7,   28.4,   28.2,   27.8,   27.2,   26.1,   24.1,   20.7,   20.0,   18.6,   18.9,   18.0,   18.9,   19.7
